Year,Month,Day,Hour,Minute,Value (Times are PST for temperature in C)
2018,08,05,00,00,20.40
2018,08,05,00,01,20.30
2018,08,05,00,02,20.30
2018,08,05,00,03,20.20
2018,08,05,00,04,20.10
2018,08,05,00,05,20.00
2018,08,05,00,06,20.00
2018,08,05,00,07,19.90
2018,08,05,00,08,19.90
2018,08,05,00,09,19.80
2018,08,05,00,10,19.70
2018,08,05,00,11,19.70
2018,08,05,00,12,19.70
2018,08,05,00,13,19.70
2018,08,05,00,14,19.70
2018,08,05,00,15,19.70
2018,08,05,00,16,19.70
2018,08,05,00,17,19.80
2018,08,05,00,18,19.80
2018,08,05,00,19,19.80
2018,08,05,00,20,19.90
2018,08,05,00,21,19.90
2018,08,05,00,22,19.90
2018,08,05,00,23,19.90
2018,08,05,00,24,19.90
2018,08,05,00,25,19.90
2018,08,05,00,26,19.90
2018,08,05,00,27,19.90
2018,08,05,00,28,19.90
2018,08,05,00,29,19.90
2018,08,05,00,30,19.90
2018,08,05,00,31,19.90
2018,08,05,00,32,19.90
2018,08,05,00,33,19.90
2018,08,05,00,34,19.90
2018,08,05,00,35,19.90
2018,08,05,00,36,19.80
2018,08,05,00,37,19.80
2018,08,05,00,38,19.80
2018,08,05,00,39,19.80
2018,08,05,00,40,19.80
2018,08,05,00,41,19.80
2018,08,05,00,42,19.70
2018,08,05,00,43,19.80
2018,08,05,00,44,19.80
2018,08,05,00,45,19.80
2018,08,05,00,46,19.80
2018,08,05,00,47,19.70
2018,08,05,00,48,19.70
2018,08,05,00,49,19.60
2018,08,05,00,50,19.60
2018,08,05,00,51,19.50
2018,08,05,00,52,19.50
2018,08,05,00,53,19.40
2018,08,05,00,54,19.40
2018,08,05,00,55,19.40
2018,08,05,00,56,19.30
2018,08,05,00,57,19.30
2018,08,05,00,58,19.30
2018,08,05,00,59,19.20
2018,08,05,01,00,19.20
2018,08,05,01,01,19.20
2018,08,05,01,02,19.20
2018,08,05,01,03,19.20
2018,08,05,01,04,19.10
2018,08,05,01,05,19.10
2018,08,05,01,06,19.10
2018,08,05,01,07,19.10
2018,08,05,01,08,19.10
2018,08,05,01,09,19.10
2018,08,05,01,10,19.10
2018,08,05,01,11,19.00
2018,08,05,01,12,19.00
2018,08,05,01,13,19.00
2018,08,05,01,14,19.00
2018,08,05,01,15,19.00
2018,08,05,01,16,19.00
2018,08,05,01,17,19.00
2018,08,05,01,18,19.00
2018,08,05,01,19,19.00
2018,08,05,01,20,19.00
2018,08,05,01,21,19.00
2018,08,05,01,22,18.90
2018,08,05,01,23,18.90
2018,08,05,01,24,18.90
2018,08,05,01,25,18.80
2018,08,05,01,26,18.80
2018,08,05,01,27,18.70
2018,08,05,01,28,18.70
2018,08,05,01,29,18.60
2018,08,05,01,30,18.60
2018,08,05,01,31,18.50
2018,08,05,01,32,18.50
2018,08,05,01,33,18.40
2018,08,05,01,34,18.50
2018,08,05,01,35,18.50
2018,08,05,01,36,18.50
2018,08,05,01,37,18.50
2018,08,05,01,38,18.50
2018,08,05,01,39,18.40
2018,08,05,01,40,18.40
2018,08,05,01,41,18.30
2018,08,05,01,42,18.30
2018,08,05,01,43,18.30
2018,08,05,01,44,18.30
2018,08,05,01,45,18.30
2018,08,05,01,46,18.30
2018,08,05,01,47,18.30
2018,08,05,01,48,18.40
2018,08,05,01,49,18.40
2018,08,05,01,50,18.40
2018,08,05,01,51,18.50
2018,08,05,01,52,18.50
2018,08,05,01,53,18.50
2018,08,05,01,54,18.50
2018,08,05,01,55,18.60
2018,08,05,01,56,18.60
2018,08,05,01,57,18.50
2018,08,05,01,58,18.50
2018,08,05,01,59,18.50
2018,08,05,02,00,18.50
2018,08,05,02,01,18.50
2018,08,05,02,02,18.50
2018,08,05,02,03,18.50
2018,08,05,02,04,18.50
2018,08,05,02,05,18.50
2018,08,05,02,06,18.40
2018,08,05,02,07,18.40
2018,08,05,02,08,18.40
2018,08,05,02,09,18.40
2018,08,05,02,10,18.40
2018,08,05,02,11,18.40
2018,08,05,02,12,18.40
2018,08,05,02,13,18.40
2018,08,05,02,14,18.40
2018,08,05,02,15,18.40
2018,08,05,02,16,18.40
2018,08,05,02,17,18.40
2018,08,05,02,18,18.40
2018,08,05,02,19,18.40
2018,08,05,02,20,18.40
2018,08,05,02,21,18.40
2018,08,05,02,22,18.40
2018,08,05,02,23,18.40
2018,08,05,02,24,18.40
2018,08,05,02,25,18.40
2018,08,05,02,26,18.40
2018,08,05,02,27,18.40
2018,08,05,02,28,18.40
2018,08,05,02,29,18.50
2018,08,05,02,30,18.50
2018,08,05,02,31,18.50
2018,08,05,02,32,18.60
2018,08,05,02,33,18.60
2018,08,05,02,34,18.60
2018,08,05,02,35,18.70
2018,08,05,02,36,18.70
2018,08,05,02,37,18.70
2018,08,05,02,38,18.80
2018,08,05,02,39,18.90
2018,08,05,02,40,19.00
2018,08,05,02,41,19.10
2018,08,05,02,42,19.30
2018,08,05,02,43,19.30
2018,08,05,02,44,19.40
2018,08,05,02,45,19.40
2018,08,05,02,46,19.40
2018,08,05,02,47,19.40
2018,08,05,02,48,19.30
2018,08,05,02,49,19.30
2018,08,05,02,50,19.20
2018,08,05,02,51,19.20
2018,08,05,02,52,19.10
2018,08,05,02,53,19.10
2018,08,05,02,54,19.10
2018,08,05,02,55,19.20
2018,08,05,02,56,19.20
2018,08,05,02,57,19.10
2018,08,05,02,58,19.10
2018,08,05,02,59,19.10
2018,08,05,03,00,19.10
2018,08,05,03,01,19.10
2018,08,05,03,02,19.00
2018,08,05,03,03,19.00
2018,08,05,03,04,18.90
2018,08,05,03,05,18.90
2018,08,05,03,06,18.80
2018,08,05,03,07,18.70
2018,08,05,03,08,18.60
2018,08,05,03,09,18.50
2018,08,05,03,10,18.40
2018,08,05,03,11,18.20
2018,08,05,03,12,18.10
2018,08,05,03,13,18.10
2018,08,05,03,14,18.00
2018,08,05,03,15,18.00
2018,08,05,03,16,18.00
2018,08,05,03,17,17.90
2018,08,05,03,18,18.00
2018,08,05,03,19,18.00
2018,08,05,03,20,18.00
2018,08,05,03,21,18.00
2018,08,05,03,22,18.00
2018,08,05,03,23,18.00
2018,08,05,03,24,18.00
2018,08,05,03,25,18.00
2018,08,05,03,26,18.10
2018,08,05,03,27,18.10
2018,08,05,03,28,18.10
2018,08,05,03,29,18.00
2018,08,05,03,30,17.90
2018,08,05,03,31,17.90
2018,08,05,03,32,17.90
2018,08,05,03,33,17.90
2018,08,05,03,34,17.90
2018,08,05,03,35,17.80
2018,08,05,03,36,17.80
2018,08,05,03,37,17.80
2018,08,05,03,38,17.80
2018,08,05,03,39,17.70
2018,08,05,03,40,17.70
2018,08,05,03,41,17.70
2018,08,05,03,42,17.60
2018,08,05,03,43,17.60
2018,08,05,03,44,17.60
2018,08,05,03,45,17.60
2018,08,05,03,46,17.70
2018,08,05,03,47,17.70
2018,08,05,03,48,17.60
2018,08,05,03,49,17.60
2018,08,05,03,50,17.60
2018,08,05,03,51,17.60
2018,08,05,03,52,17.60
2018,08,05,03,53,17.60
2018,08,05,03,54,17.60
2018,08,05,03,55,17.50
2018,08,05,03,56,17.60
2018,08,05,03,57,17.60
2018,08,05,03,58,17.60
2018,08,05,03,59,17.70
2018,08,05,04,00,17.70
2018,08,05,04,01,17.70
2018,08,05,04,02,17.70
2018,08,05,04,03,17.80
2018,08,05,04,04,17.80
2018,08,05,04,05,17.80
2018,08,05,04,06,17.80
2018,08,05,04,07,17.80
2018,08,05,04,08,17.80
2018,08,05,04,09,17.80
2018,08,05,04,10,17.80
2018,08,05,04,11,17.80
2018,08,05,04,12,17.80
2018,08,05,04,13,17.80
2018,08,05,04,14,17.80
2018,08,05,04,15,17.80
2018,08,05,04,16,17.70
2018,08,05,04,17,17.70
2018,08,05,04,18,17.70
2018,08,05,04,19,17.70
2018,08,05,04,20,17.70
2018,08,05,04,21,17.70
2018,08,05,04,22,17.70
2018,08,05,04,23,17.70
2018,08,05,04,24,17.70
2018,08,05,04,25,17.70
2018,08,05,04,26,17.60
2018,08,05,04,27,17.60
2018,08,05,04,28,17.60
2018,08,05,04,29,17.60
2018,08,05,04,30,17.60
2018,08,05,04,31,17.60
2018,08,05,04,32,17.50
2018,08,05,04,33,17.50
2018,08,05,04,34,17.50
2018,08,05,04,35,17.50
2018,08,05,04,36,17.50
2018,08,05,04,37,17.50
2018,08,05,04,38,17.50
2018,08,05,04,39,17.50
2018,08,05,04,40,17.40
2018,08,05,04,41,17.40
2018,08,05,04,42,17.40
2018,08,05,04,43,17.40
2018,08,05,04,44,17.40
2018,08,05,04,45,17.40
2018,08,05,04,46,17.40
2018,08,05,04,47,17.40
2018,08,05,04,48,17.40
2018,08,05,04,49,17.40
2018,08,05,04,50,17.40
2018,08,05,04,51,17.50
2018,08,05,04,52,17.50
2018,08,05,04,53,17.50
2018,08,05,04,54,17.60
2018,08,05,04,55,17.60
2018,08,05,04,56,17.60
2018,08,05,04,57,17.60
2018,08,05,04,58,17.60
2018,08,05,04,59,17.60
2018,08,05,05,00,17.60
2018,08,05,05,01,17.60
2018,08,05,05,02,17.60
2018,08,05,05,03,17.60
2018,08,05,05,04,17.60
2018,08,05,05,05,17.60
2018,08,05,05,06,17.60
2018,08,05,05,07,17.60
2018,08,05,05,08,17.60
2018,08,05,05,09,17.60
2018,08,05,05,10,17.70
2018,08,05,05,11,17.70
2018,08,05,05,12,17.70
2018,08,05,05,13,17.80
2018,08,05,05,14,17.80
2018,08,05,05,15,17.80
2018,08,05,05,16,17.80
2018,08,05,05,17,17.80
2018,08,05,05,18,17.80
2018,08,05,05,19,17.80
2018,08,05,05,20,17.80
2018,08,05,05,21,17.80
2018,08,05,05,22,17.80
2018,08,05,05,23,17.90
2018,08,05,05,24,17.90
2018,08,05,05,25,18.00
2018,08,05,05,26,18.00
2018,08,05,05,27,18.00
2018,08,05,05,28,18.00
2018,08,05,05,29,18.00
2018,08,05,05,30,18.10
2018,08,05,05,31,18.10
2018,08,05,05,32,18.20
2018,08,05,05,33,18.20
2018,08,05,05,34,18.20
2018,08,05,05,35,18.20
2018,08,05,05,36,18.10
2018,08,05,05,37,18.00
2018,08,05,05,38,17.90
2018,08,05,05,39,17.90
2018,08,05,05,40,17.80
2018,08,05,05,41,17.80
2018,08,05,05,42,17.80
2018,08,05,05,43,17.90
2018,08,05,05,44,17.90
2018,08,05,05,45,17.80
2018,08,05,05,46,17.80
2018,08,05,05,47,17.80
2018,08,05,05,48,17.80
2018,08,05,05,49,17.90
2018,08,05,05,50,17.90
2018,08,05,05,51,18.00
2018,08,05,05,52,18.00
2018,08,05,05,53,18.10
2018,08,05,05,54,18.00
2018,08,05,05,55,18.00
2018,08,05,05,56,17.90
2018,08,05,05,57,17.90
2018,08,05,05,58,17.90
2018,08,05,05,59,17.90
2018,08,05,06,00,17.90
2018,08,05,06,01,17.90
2018,08,05,06,02,17.90
2018,08,05,06,03,17.90
2018,08,05,06,04,17.90
2018,08,05,06,05,17.90
2018,08,05,06,06,18.00
2018,08,05,06,07,18.00
2018,08,05,06,08,18.10
2018,08,05,06,09,18.10
2018,08,05,06,10,18.10
2018,08,05,06,11,18.20
2018,08,05,06,12,18.20
2018,08,05,06,13,18.30
2018,08,05,06,14,18.30
2018,08,05,06,15,18.40
2018,08,05,06,16,18.40
2018,08,05,06,17,18.50
2018,08,05,06,18,18.50
2018,08,05,06,19,18.50
2018,08,05,06,20,18.60
2018,08,05,06,21,18.60
2018,08,05,06,22,18.60
2018,08,05,06,23,18.60
2018,08,05,06,24,18.60
2018,08,05,06,25,18.60
2018,08,05,06,26,18.60
2018,08,05,06,27,18.60
2018,08,05,06,28,18.60
2018,08,05,06,29,18.60
2018,08,05,06,30,18.50
2018,08,05,06,31,18.50
2018,08,05,06,32,18.40
2018,08,05,06,33,18.40
2018,08,05,06,34,18.40
2018,08,05,06,35,18.40
2018,08,05,06,36,18.40
2018,08,05,06,37,18.40
2018,08,05,06,38,18.40
2018,08,05,06,39,18.40
2018,08,05,06,40,18.50
2018,08,05,06,41,18.60
2018,08,05,06,42,18.60
2018,08,05,06,43,18.70
2018,08,05,06,44,18.70
2018,08,05,06,45,18.80
2018,08,05,06,46,18.80
2018,08,05,06,47,18.80
2018,08,05,06,48,18.90
2018,08,05,06,49,18.90
2018,08,05,06,50,18.90
2018,08,05,06,51,18.90
2018,08,05,06,52,18.90
2018,08,05,06,53,18.90
2018,08,05,06,54,19.00
2018,08,05,06,55,19.00
2018,08,05,06,56,19.00
2018,08,05,06,57,19.00
2018,08,05,06,58,19.00
2018,08,05,06,59,19.10
2018,08,05,07,00,19.10
2018,08,05,07,01,19.10
2018,08,05,07,02,19.10
2018,08,05,07,03,19.20
2018,08,05,07,04,19.20
2018,08,05,07,05,19.30
2018,08,05,07,06,19.30
2018,08,05,07,07,19.40
2018,08,05,07,08,19.40
2018,08,05,07,09,19.50
2018,08,05,07,10,19.60
2018,08,05,07,11,19.70
2018,08,05,07,12,19.70
2018,08,05,07,13,19.80
2018,08,05,07,14,19.80
2018,08,05,07,15,19.90
2018,08,05,07,16,20.00
2018,08,05,07,17,20.00
2018,08,05,07,18,20.10
2018,08,05,07,19,20.10
2018,08,05,07,20,20.20
2018,08,05,07,21,20.20
2018,08,05,07,22,20.30
2018,08,05,07,23,20.30
2018,08,05,07,24,20.40
2018,08,05,07,25,20.40
2018,08,05,07,26,20.50
2018,08,05,07,27,20.60
2018,08,05,07,28,20.60
2018,08,05,07,29,20.60
2018,08,05,07,30,20.70
2018,08,05,07,31,20.70
2018,08,05,07,32,20.80
2018,08,05,07,33,20.80
2018,08,05,07,34,20.80
2018,08,05,07,35,20.80
2018,08,05,07,36,20.80
2018,08,05,07,37,20.80
2018,08,05,07,38,20.80
2018,08,05,07,39,20.80
2018,08,05,07,40,20.80
2018,08,05,07,41,20.90
2018,08,05,07,42,20.90
2018,08,05,07,43,20.80
2018,08,05,07,44,20.80
2018,08,05,07,45,20.80
2018,08,05,07,46,20.80
2018,08,05,07,47,20.70
2018,08,05,07,48,20.70
2018,08,05,07,49,20.70
2018,08,05,07,50,20.60
2018,08,05,07,51,20.60
2018,08,05,07,52,20.60
2018,08,05,07,53,20.60
2018,08,05,07,54,20.60
2018,08,05,07,55,20.60
2018,08,05,07,56,20.50
2018,08,05,07,57,20.50
2018,08,05,07,58,20.50
2018,08,05,07,59,20.50
2018,08,05,08,00,20.40
2018,08,05,08,01,20.40
2018,08,05,08,02,20.40
2018,08,05,08,03,20.30
2018,08,05,08,04,20.30
2018,08,05,08,05,20.20
2018,08,05,08,06,20.00
2018,08,05,08,07,19.90
2018,08,05,08,08,19.80
2018,08,05,08,09,19.70
2018,08,05,08,10,19.70
2018,08,05,08,11,19.70
2018,08,05,08,12,19.60
2018,08,05,08,13,19.60
2018,08,05,08,14,19.60
2018,08,05,08,15,19.60
2018,08,05,08,16,19.60
2018,08,05,08,17,19.50
2018,08,05,08,18,19.50
2018,08,05,08,19,19.40
2018,08,05,08,20,19.40
2018,08,05,08,21,19.40
2018,08,05,08,22,19.30
2018,08,05,08,23,19.30
2018,08,05,08,24,19.30
2018,08,05,08,25,19.30
2018,08,05,08,26,19.30
2018,08,05,08,27,19.40
2018,08,05,08,28,19.40
2018,08,05,08,29,19.50
2018,08,05,08,30,19.50
2018,08,05,08,31,19.60
2018,08,05,08,32,19.60
2018,08,05,08,33,19.60
2018,08,05,08,34,19.60
2018,08,05,08,35,19.60
2018,08,05,08,36,19.60
2018,08,05,08,37,19.50
2018,08,05,08,38,19.40
2018,08,05,08,39,19.40
2018,08,05,08,40,19.50
2018,08,05,08,41,19.40
2018,08,05,08,42,19.50
2018,08,05,08,43,19.50
2018,08,05,08,44,19.40
2018,08,05,08,45,19.40
2018,08,05,08,46,19.40
2018,08,05,08,47,19.30
2018,08,05,08,48,19.30
2018,08,05,08,49,19.30
2018,08,05,08,50,19.20
2018,08,05,08,51,19.20
2018,08,05,08,52,19.20
2018,08,05,08,53,19.20
2018,08,05,08,54,19.30
2018,08,05,08,55,19.30
2018,08,05,08,56,19.40
2018,08,05,08,57,19.40
2018,08,05,08,58,19.50
2018,08,05,08,59,19.60
2018,08,05,09,00,19.60
2018,08,05,09,01,19.60
2018,08,05,09,02,19.60
2018,08,05,09,03,19.60
2018,08,05,09,04,19.60
2018,08,05,09,05,19.60
2018,08,05,09,06,19.60
2018,08,05,09,07,19.60
2018,08,05,09,08,19.60
2018,08,05,09,09,19.60
2018,08,05,09,10,19.70
2018,08,05,09,11,19.70
2018,08,05,09,12,19.70
2018,08,05,09,13,19.80
2018,08,05,09,14,19.80
2018,08,05,09,15,19.80
2018,08,05,09,16,19.90
2018,08,05,09,17,19.90
2018,08,05,09,18,19.90
2018,08,05,09,19,19.90
2018,08,05,09,20,20.00
2018,08,05,09,21,20.00
2018,08,05,09,22,20.00
2018,08,05,09,23,20.10
2018,08,05,09,24,20.20
2018,08,05,09,25,20.30
2018,08,05,09,26,20.40
2018,08,05,09,27,20.40
2018,08,05,09,28,20.40
2018,08,05,09,29,20.40
2018,08,05,09,30,20.40
2018,08,05,09,31,20.50
2018,08,05,09,32,20.50
2018,08,05,09,33,20.50
2018,08,05,09,34,20.60
2018,08,05,09,35,20.70
2018,08,05,09,36,20.80
2018,08,05,09,37,20.80
2018,08,05,09,38,20.80
2018,08,05,09,39,20.80
2018,08,05,09,40,20.80
2018,08,05,09,41,20.90
2018,08,05,09,42,20.90
2018,08,05,09,43,20.90
2018,08,05,09,44,21.00
2018,08,05,09,45,20.90
2018,08,05,09,46,21.00
2018,08,05,09,47,20.90
2018,08,05,09,48,20.90
2018,08,05,09,49,21.00
2018,08,05,09,50,21.00
2018,08,05,09,51,21.10
2018,08,05,09,52,21.10
2018,08,05,09,53,21.20
2018,08,05,09,54,21.20
2018,08,05,09,55,21.20
2018,08,05,09,56,21.20
2018,08,05,09,57,21.20
2018,08,05,09,58,21.30
2018,08,05,09,59,21.30
2018,08,05,10,00,21.30
2018,08,05,10,01,21.30
2018,08,05,10,02,21.20
2018,08,05,10,03,21.20
2018,08,05,10,04,21.10
2018,08,05,10,05,21.10
2018,08,05,10,06,21.00
2018,08,05,10,07,21.00
2018,08,05,10,08,20.90
2018,08,05,10,09,20.80
2018,08,05,10,10,20.80
2018,08,05,10,11,20.70
2018,08,05,10,12,20.70
2018,08,05,10,13,20.70
2018,08,05,10,14,20.80
2018,08,05,10,15,20.80
2018,08,05,10,16,20.90
2018,08,05,10,17,20.90
2018,08,05,10,18,20.80
2018,08,05,10,19,20.90
2018,08,05,10,20,20.80
2018,08,05,10,21,20.80
2018,08,05,10,22,20.90
2018,08,05,10,23,20.90
2018,08,05,10,24,20.80
2018,08,05,10,25,20.70
2018,08,05,10,26,20.70
2018,08,05,10,27,20.60
2018,08,05,10,28,20.60
2018,08,05,10,29,20.60
2018,08,05,10,30,20.60
2018,08,05,10,31,20.70
2018,08,05,10,32,20.60
2018,08,05,10,33,20.70
2018,08,05,10,34,20.60
2018,08,05,10,35,20.60
2018,08,05,10,36,20.50
2018,08,05,10,37,20.50
2018,08,05,10,38,20.50
2018,08,05,10,39,20.60
2018,08,05,10,40,20.60
2018,08,05,10,41,20.70
2018,08,05,10,42,20.70
2018,08,05,10,43,20.80
2018,08,05,10,44,20.80
2018,08,05,10,45,20.90
2018,08,05,10,46,20.90
2018,08,05,10,47,21.00
2018,08,05,10,48,21.00
2018,08,05,10,49,21.00
2018,08,05,10,50,21.10
2018,08,05,10,51,21.10
2018,08,05,10,52,21.20
2018,08,05,10,53,21.20
2018,08,05,10,54,21.20
2018,08,05,10,55,21.20
2018,08,05,10,56,21.20
2018,08,05,10,57,21.20
2018,08,05,10,58,21.30
2018,08,05,10,59,21.30
2018,08,05,11,00,21.30
2018,08,05,11,01,21.40
2018,08,05,11,02,21.40
2018,08,05,11,03,21.30
2018,08,05,11,04,21.30
2018,08,05,11,05,21.30
2018,08,05,11,06,21.30
2018,08,05,11,07,21.30
2018,08,05,11,08,21.30
2018,08,05,11,09,21.30
2018,08,05,11,10,21.30
2018,08,05,11,11,21.20
2018,08,05,11,12,21.20
2018,08,05,11,13,21.10
2018,08,05,11,14,21.10
2018,08,05,11,15,21.20
2018,08,05,11,16,21.10
2018,08,05,11,17,21.10
2018,08,05,11,18,21.10
2018,08,05,11,19,21.10
2018,08,05,11,20,21.10
2018,08,05,11,21,21.10
2018,08,05,11,22,21.10
2018,08,05,11,23,21.20
2018,08,05,11,24,21.20
2018,08,05,11,25,21.20
2018,08,05,11,26,21.20
2018,08,05,11,27,21.20
2018,08,05,11,28,21.20
2018,08,05,11,29,21.20
2018,08,05,11,30,21.20
2018,08,05,11,31,21.20
2018,08,05,11,32,21.30
2018,08,05,11,33,21.30
2018,08,05,11,34,21.30
2018,08,05,11,35,21.40
2018,08,05,11,36,21.40
2018,08,05,11,37,21.40
2018,08,05,11,38,21.40
2018,08,05,11,39,21.30
2018,08,05,11,40,21.30
2018,08,05,11,41,21.30
2018,08,05,11,42,21.30
2018,08,05,11,43,21.30
2018,08,05,11,44,21.30
2018,08,05,11,45,21.30
2018,08,05,11,46,21.30
2018,08,05,11,47,21.20
2018,08,05,11,48,21.20
2018,08,05,11,49,21.20
2018,08,05,11,50,21.20
2018,08,05,11,51,21.30
2018,08,05,11,52,21.30
2018,08,05,11,53,21.30
2018,08,05,11,54,21.30
2018,08,05,11,55,21.30
2018,08,05,11,56,21.30
2018,08,05,11,57,21.30
2018,08,05,11,58,21.30
2018,08,05,11,59,21.40
2018,08,05,12,00,21.40
2018,08,05,12,01,21.40
2018,08,05,12,02,21.40
2018,08,05,12,03,21.40
2018,08,05,12,04,21.40
2018,08,05,12,05,21.40
2018,08,05,12,06,21.30
2018,08,05,12,07,21.30
2018,08,05,12,08,21.30
2018,08,05,12,09,21.40
2018,08,05,12,10,21.40
2018,08,05,12,11,21.30
2018,08,05,12,12,21.40
2018,08,05,12,13,21.30
2018,08,05,12,14,21.30
2018,08,05,12,15,21.30
2018,08,05,12,16,21.20
2018,08,05,12,17,21.20
2018,08,05,12,18,21.10
2018,08,05,12,19,21.00
2018,08,05,12,20,21.00
2018,08,05,12,21,20.90
2018,08,05,12,22,20.90
2018,08,05,12,23,20.90
2018,08,05,12,24,20.80
2018,08,05,12,25,20.80
2018,08,05,12,26,20.80
2018,08,05,12,27,20.80
2018,08,05,12,28,20.80
2018,08,05,12,29,20.90
2018,08,05,12,30,20.90
2018,08,05,12,31,20.90
2018,08,05,12,32,21.00
2018,08,05,12,33,21.00
2018,08,05,12,34,20.90
2018,08,05,12,35,20.90
2018,08,05,12,36,20.90
2018,08,05,12,37,20.90
2018,08,05,12,38,20.90
2018,08,05,12,39,21.00
2018,08,05,12,40,21.00
2018,08,05,12,41,21.00
2018,08,05,12,42,21.10
2018,08,05,12,43,21.20
2018,08,05,12,44,21.20
2018,08,05,12,45,21.30
2018,08,05,12,46,21.30
2018,08,05,12,47,21.40
2018,08,05,12,48,21.40
2018,08,05,12,49,21.50
2018,08,05,12,50,21.60
2018,08,05,12,51,21.50
2018,08,05,12,52,21.50
2018,08,05,12,53,21.50
2018,08,05,12,54,21.50
2018,08,05,12,55,21.50
2018,08,05,12,56,21.60
2018,08,05,12,57,21.60
2018,08,05,12,58,21.60
2018,08,05,12,59,21.50
2018,08,05,13,00,21.50
2018,08,05,13,01,21.40
2018,08,05,13,02,21.50
2018,08,05,13,03,21.50
2018,08,05,13,04,21.50
2018,08,05,13,05,21.60
2018,08,05,13,06,21.50
2018,08,05,13,07,21.50
2018,08,05,13,08,21.50
2018,08,05,13,09,21.40
2018,08,05,13,10,21.50
2018,08,05,13,11,21.50
2018,08,05,13,12,21.50
2018,08,05,13,13,21.60
2018,08,05,13,14,21.60
2018,08,05,13,15,21.70
2018,08,05,13,16,21.70
2018,08,05,13,17,21.70
2018,08,05,13,18,21.80
2018,08,05,13,19,21.80
2018,08,05,13,20,21.80
2018,08,05,13,21,21.80
2018,08,05,13,22,21.80
2018,08,05,13,23,21.70
2018,08,05,13,24,21.70
2018,08,05,13,25,21.70
2018,08,05,13,26,21.80
2018,08,05,13,27,21.80
2018,08,05,13,28,21.80
2018,08,05,13,29,21.80
2018,08,05,13,30,21.80
2018,08,05,13,31,21.80
2018,08,05,13,32,21.80
2018,08,05,13,33,21.80
2018,08,05,13,34,21.80
2018,08,05,13,35,21.80
2018,08,05,13,36,21.80
2018,08,05,13,37,21.90
2018,08,05,13,38,21.90
2018,08,05,13,39,22.00
2018,08,05,13,40,22.00
2018,08,05,13,41,22.10
2018,08,05,13,42,22.20
2018,08,05,13,43,22.20
2018,08,05,13,44,22.30
2018,08,05,13,45,22.30
2018,08,05,13,46,22.30
2018,08,05,13,47,22.30
2018,08,05,13,48,22.30
2018,08,05,13,49,22.30
2018,08,05,13,50,22.30
2018,08,05,13,51,22.40
2018,08,05,13,52,22.50
2018,08,05,13,53,22.60
2018,08,05,13,54,22.60
2018,08,05,13,55,22.50
2018,08,05,13,56,22.50
2018,08,05,13,57,22.60
2018,08,05,13,58,22.60
2018,08,05,13,59,22.70
2018,08,05,14,00,22.70
2018,08,05,14,01,22.60
2018,08,05,14,02,22.70
2018,08,05,14,03,22.70
2018,08,05,14,04,22.70
2018,08,05,14,05,22.60
2018,08,05,14,06,22.70
2018,08,05,14,07,22.70
2018,08,05,14,08,22.70
2018,08,05,14,09,22.70
2018,08,05,14,10,22.70
2018,08,05,14,11,22.60
2018,08,05,14,12,22.70
2018,08,05,14,13,22.70
2018,08,05,14,14,22.80
2018,08,05,14,15,22.70
2018,08,05,14,16,22.70
2018,08,05,14,17,22.70
2018,08,05,14,18,22.70
2018,08,05,14,19,22.70
2018,08,05,14,20,22.70
2018,08,05,14,21,22.70
2018,08,05,14,22,22.70
2018,08,05,14,23,22.70
2018,08,05,14,24,22.70
2018,08,05,14,25,22.70
2018,08,05,14,26,22.80
2018,08,05,14,27,22.80
2018,08,05,14,28,22.90
2018,08,05,14,29,22.90
2018,08,05,14,30,23.00
2018,08,05,14,31,23.00
2018,08,05,14,32,23.10
2018,08,05,14,33,23.10
2018,08,05,14,34,23.10
2018,08,05,14,35,23.20
2018,08,05,14,36,23.20
2018,08,05,14,37,23.20
2018,08,05,14,38,23.30
2018,08,05,14,39,23.40
2018,08,05,14,40,23.40
2018,08,05,14,41,23.50
2018,08,05,14,42,23.60
2018,08,05,14,43,23.50
2018,08,05,14,44,23.50
2018,08,05,14,45,23.50
2018,08,05,14,46,23.40
2018,08,05,14,47,23.40
2018,08,05,14,48,23.30
2018,08,05,14,49,23.30
2018,08,05,14,50,23.30
2018,08,05,14,51,23.20
2018,08,05,14,52,23.10
2018,08,05,14,53,23.10
2018,08,05,14,54,23.00
2018,08,05,14,55,22.90
2018,08,05,14,56,23.00
2018,08,05,14,57,23.00
2018,08,05,14,58,23.10
2018,08,05,14,59,23.20
2018,08,05,15,00,23.20
2018,08,05,15,01,23.20
2018,08,05,15,02,23.20
2018,08,05,15,03,23.20
2018,08,05,15,04,23.30
2018,08,05,15,05,23.40
2018,08,05,15,06,23.50
2018,08,05,15,07,23.60
2018,08,05,15,08,23.60
2018,08,05,15,09,23.60
2018,08,05,15,10,23.60
2018,08,05,15,11,23.60
2018,08,05,15,12,23.60
2018,08,05,15,13,23.60
2018,08,05,15,14,23.60
2018,08,05,15,15,23.60
2018,08,05,15,16,23.50
2018,08,05,15,17,23.40
2018,08,05,15,18,23.30
2018,08,05,15,19,23.30
2018,08,05,15,20,23.30
2018,08,05,15,21,23.20
2018,08,05,15,22,23.20
2018,08,05,15,23,23.20
2018,08,05,15,24,23.30
2018,08,05,15,25,23.30
2018,08,05,15,26,23.30
2018,08,05,15,27,23.30
2018,08,05,15,28,23.30
2018,08,05,15,29,23.40
2018,08,05,15,30,23.40
2018,08,05,15,31,23.40
2018,08,05,15,32,23.40
2018,08,05,15,33,23.40
2018,08,05,15,34,23.40
2018,08,05,15,35,23.50
2018,08,05,15,36,23.50
2018,08,05,15,37,23.60
2018,08,05,15,38,23.60
2018,08,05,15,39,23.60
2018,08,05,15,40,23.60
2018,08,05,15,41,23.50
2018,08,05,15,42,23.50
2018,08,05,15,43,23.50
2018,08,05,15,44,23.50
2018,08,05,15,45,23.40
2018,08,05,15,46,23.40
2018,08,05,15,47,23.40
2018,08,05,15,48,23.40
2018,08,05,15,49,23.40
2018,08,05,15,50,23.40
2018,08,05,15,51,23.40
2018,08,05,15,52,23.40
2018,08,05,15,53,23.40
2018,08,05,15,54,23.40
2018,08,05,15,55,23.40
2018,08,05,15,56,23.30
2018,08,05,15,57,23.30
2018,08,05,15,58,23.30
2018,08,05,15,59,23.30
2018,08,05,16,00,23.30
2018,08,05,16,01,23.20
2018,08,05,16,02,23.20
2018,08,05,16,03,23.20
2018,08,05,16,04,23.30
2018,08,05,16,05,23.30
2018,08,05,16,06,23.30
2018,08,05,16,07,23.30
2018,08,05,16,08,23.30
2018,08,05,16,09,23.30
2018,08,05,16,10,23.30
2018,08,05,16,11,23.30
2018,08,05,16,12,23.30
2018,08,05,16,13,23.30
2018,08,05,16,14,23.30
2018,08,05,16,15,23.30
2018,08,05,16,16,23.30
2018,08,05,16,17,23.30
2018,08,05,16,18,23.30
2018,08,05,16,19,23.30
2018,08,05,16,20,23.40
2018,08,05,16,21,23.40
2018,08,05,16,22,23.40
2018,08,05,16,23,23.50
2018,08,05,16,24,23.60
2018,08,05,16,25,23.70
2018,08,05,16,26,23.80
2018,08,05,16,27,23.90
2018,08,05,16,28,24.00
2018,08,05,16,29,24.00
2018,08,05,16,30,24.10
2018,08,05,16,31,24.20
2018,08,05,16,32,24.20
2018,08,05,16,33,24.30
2018,08,05,16,34,24.30
2018,08,05,16,35,24.40
2018,08,05,16,36,24.50
2018,08,05,16,37,24.60
2018,08,05,16,38,24.60
2018,08,05,16,39,24.70
2018,08,05,16,40,24.70
2018,08,05,16,41,24.80
2018,08,05,16,42,24.80
2018,08,05,16,43,24.90
2018,08,05,16,44,25.00
2018,08,05,16,45,25.00
2018,08,05,16,46,25.10
2018,08,05,16,47,25.10
2018,08,05,16,48,25.20
2018,08,05,16,49,25.20
2018,08,05,16,50,25.20
2018,08,05,16,51,25.30
2018,08,05,16,52,25.30
2018,08,05,16,53,25.30
2018,08,05,16,54,25.30
2018,08,05,16,55,25.30
2018,08,05,16,56,25.30
2018,08,05,16,57,25.30
2018,08,05,16,58,25.30
2018,08,05,16,59,25.20
2018,08,05,17,00,25.20
2018,08,05,17,01,25.20
2018,08,05,17,02,25.10
2018,08,05,17,03,25.00
2018,08,05,17,04,25.00
2018,08,05,17,05,25.00
2018,08,05,17,06,25.10
2018,08,05,17,07,25.10
2018,08,05,17,08,25.10
2018,08,05,17,09,25.10
2018,08,05,17,10,25.10
2018,08,05,17,11,25.00
2018,08,05,17,12,25.00
2018,08,05,17,13,25.10
2018,08,05,17,14,25.10
2018,08,05,17,15,25.10
2018,08,05,17,16,25.10
2018,08,05,17,17,25.10
2018,08,05,17,18,25.20
2018,08,05,17,19,25.20